Weather in Santa Rosa De Cabal

Colombia     4°52′30″N   75°37′31″W
temp.,
°C
wind,
m/s
gust,
m/s
humid.,
%
clouds,
%
prec.,
mm/h
press.,
hPa
HPBL,
m
25 february, thu
thu2501:00+17e019862 6.6 101223
04:00+16ene019766 1.1 101145
07:00+17ne119567 1.1 101360
10:00+26nw016261 0.0 1013552
13:00+31sw014159 0.1 10081273
16:00+29w1148100 0.7 10071594
19:00+20sse1194100 4.6 101029
22:00+18e019899 9.8 101224
26 february, fri
fri2601:00+17e119887 12.9 101124
04:00+17ne009999 2.6 101051
07:00+18ene119899 3.1 101273
10:00+23w117599 0.1 1012566
13:00+31wsw014678 0.5 10081346
16:00+27sw226469 1.4 1007822
19:00+19sse019685 6.8 100926
22:00+18ne1198100 7.3 101226
27 february, sat
sat2701:00+17ne1199100 12.5 101123
04:00+17ne119994 3.8 101134
07:00+17ne119896 5.1 101282
10:00+24wsw117492 0.3 1012503
13:00+31sw114572 0.8 10081388
16:00+28w115169 0.6 10061591
19:00+20ese019583 7.7 100928
22:00+19sse1198100 11.3 101175
28 february, sun
sun2801:00+18se0199100 18.8 101185
04:00+18ene1199100 5.2 101067
07:00+18ene119899 7.6 101171
10:00+24nw017388 0.3 1011537
13:00+29sw114883 0.6 10081382
16:00+24sw138756 2.9 1006270
19:00+19ssw129678 7.6 100956
22:00+18ssw1298100 6.2 1011109
1 march, mon
mon101:00+18ne00100100 12.6 101059
04:00+18nne0199100 9.4 100945
07:00+18se0199100 14.9 101152
10:00+18nne1198100 3.7 1012128
13:00+20ese1187100 4.2 1009273
16:00+21ssw1184100 0.8 1008310
19:00+18ssw1197100 1.8 101055
22:00+18nne0097100 0.6 101323